Aviation Digital Data Service (ADDS)

Output produced by METARs form (0338 UTC 24 February 2017)
found at http://www.aviationweather.gov/adds/metars/
 
OMAA 240300Z 06002KT 9000 NSC 20/14 Q1015 WS ALL RWY NOSIG
TAF OMAA 232300Z 2400/2506 09010KT 8000 NSC 
     PROB30 
     TEMPO 2402/2406 17018KT 4000 DU 
     BECMG 2411/2413 36012KT 
     PROB30 
     TEMPO 2422/2506 VRB02KT BKN014
       
OMAA 240300Z 06002KT 9000 NSC 20/14 Q1015 WS ALL RWY NOSIG
TAF OMAA 232300Z 2400/2506 09010KT 8000 NSC 
     PROB30 
     TEMPO 2402/2406 17018KT 4000 DU 
     BECMG 2411/2413 36012KT 
     PROB30 
     TEMPO 2422/2506 VRB02KT BKN014
       
OMAD 240300Z VRB02KT 8000 NSC 20/16 Q1015 WS ALL RWY NOSIG
TAF OMAD 232300Z 2400/2506 10010KT 8000 NSC 
     PROB30 
     TEMPO 2402/2406 17017KT 4000 DU 
     BECMG 2411/2413 36010KT 
     PROB30 
     TEMPO 2422/2506 VRB02KT BKN014
       
OMAL 240300Z 14016KT CAVOK 23/14 Q1017 NOSIG
TAF OMAL 232300Z 2400/2506 07008KT 8000 NSC 
     BECMG 2400/2402 17010KT 
     PROB40 
     TEMPO 2402/2406 17015G25KT 4000 BLDU 
     BECMG 2413/2415 34008KT 
     BECMG 2422/2424 11008KT
       
OMDB 240300Z 07005KT CAVOK 22/12 Q1016 NOSIG
TAF OMDB 232258Z 2400/2506 08008KT CAVOK 
     BECMG 2403/2405 16010KT 
     BECMG 2408/2410 01010KT 
     BECMG 2415/2417 08008KT
       
OMDW 240300Z 10006KT 7000 NSC 18/14 Q1016 NOSIG
TAF OMDW 232258Z 2400/2506 05008KT CAVOK 
     BECMG 2401/2403 16013KT 
     BECMG 2411/2413 01015KT 
     BECMG 2415/2417 08007KT
       
OMFJ 240300Z 28003KT 6000 FEW040 21/13 Q1017 RMK A3004
TAF OMFJ 232300Z 2400/2506 29008KT 7000 FEW040 
     TEMPO 2400/2404 VRB03KT 5000 HZ 
     BECMG 2406/2408 07008KT 
     BECMG 2416/2418 30008KT
       
OMRK 240300Z 22008KT 9999 FEW040 20/11 Q1016 A3002
TAF OMRK 232258Z 2400/2506 09004KT 9999 FEW040 
     BECMG 2408/2410 36010KT 
     BECMG 2414/2416 09007KT
       
OMSJ 240300Z 10005KT CAVOK 19/14 Q1016
TAF OMSJ 232258Z 2400/2506 06008KT CAVOK 
     BECMG 2402/2404 16010KT 
     BECMG 2409/2411 36010KT 
     BECMG 2414/2416 09008KT
       
OMAL 240300Z 14016KT CAVOK 23/14 Q1017 NOSIG
TAF OMAL 232300Z 2400/2506 07008KT 8000 NSC 
     BECMG 2400/2402 17010KT 
     PROB40 
     TEMPO 2402/2406 17015G25KT 4000 BLDU 
     BECMG 2413/2415 34008KT 
     BECMG 2422/2424 11008KT
       
OMAD 240300Z VRB02KT 8000 NSC 20/16 Q1015 WS ALL RWY NOSIG
TAF OMAD 232300Z 2400/2506 10010KT 8000 NSC 
     PROB30 
     TEMPO 2402/2406 17017KT 4000 DU 
     BECMG 2411/2413 36010KT 
     PROB30 
     TEMPO 2422/2506 VRB02KT BKN014
       
OMDB 240300Z 07005KT CAVOK 22/12 Q1016 NOSIG
TAF OMDB 232258Z 2400/2506 08008KT CAVOK 
     BECMG 2403/2405 16010KT 
     BECMG 2408/2410 01010KT 
     BECMG 2415/2417 08008KT
       
OMFJ 240300Z 28003KT 6000 FEW040 21/13 Q1017 RMK A3004
TAF OMFJ 232300Z 2400/2506 29008KT 7000 FEW040 
     TEMPO 2400/2404 VRB03KT 5000 HZ 
     BECMG 2406/2408 07008KT 
     BECMG 2416/2418 30008KT
       
OMRK 240300Z 22008KT 9999 FEW040 20/11 Q1016 A3002
TAF OMRK 232258Z 2400/2506 09004KT 9999 FEW040 
     BECMG 2408/2410 36010KT 
     BECMG 2414/2416 09007KT
       
OMAA 240300Z 06002KT 9000 NSC 20/14 Q1015 WS ALL RWY NOSIG
TAF OMAA 232300Z 2400/2506 09010KT 8000 NSC 
     PROB30 
     TEMPO 2402/2406 17018KT 4000 DU 
     BECMG 2411/2413 36012KT 
     PROB30 
     TEMPO 2422/2506 VRB02KT BKN014
       
OMAD 240300Z VRB02KT 8000 NSC 20/16 Q1015 WS ALL RWY NOSIG
TAF OMAD 232300Z 2400/2506 10010KT 8000 NSC 
     PROB30 
     TEMPO 2402/2406 17017KT 4000 DU 
     BECMG 2411/2413 36010KT 
     PROB30 
     TEMPO 2422/2506 VRB02KT BKN014
       
OMAL 240300Z 14016KT CAVOK 23/14 Q1017 NOSIG
TAF OMAL 232300Z 2400/2506 07008KT 8000 NSC 
     BECMG 2400/2402 17010KT 
     PROB40 
     TEMPO 2402/2406 17015G25KT 4000 BLDU 
     BECMG 2413/2415 34008KT 
     BECMG 2422/2424 11008KT
       
OMDB 240300Z 07005KT CAVOK 22/12 Q1016 NOSIG
TAF OMDB 232258Z 2400/2506 08008KT CAVOK 
     BECMG 2403/2405 16010KT 
     BECMG 2408/2410 01010KT 
     BECMG 2415/2417 08008KT
       
OMDW 240300Z 10006KT 7000 NSC 18/14 Q1016 NOSIG
TAF OMDW 232258Z 2400/2506 05008KT CAVOK 
     BECMG 2401/2403 16013KT 
     BECMG 2411/2413 01015KT 
     BECMG 2415/2417 08007KT
       
OMFJ 240300Z 28003KT 6000 FEW040 21/13 Q1017 RMK A3004
TAF OMFJ 232300Z 2400/2506 29008KT 7000 FEW040 
     TEMPO 2400/2404 VRB03KT 5000 HZ 
     BECMG 2406/2408 07008KT 
     BECMG 2416/2418 30008KT
       
OMRK 240300Z 22008KT 9999 FEW040 20/11 Q1016 A3002
TAF OMRK 232258Z 2400/2506 09004KT 9999 FEW040 
     BECMG 2408/2410 36010KT 
     BECMG 2414/2416 09007KT
       
OMSJ 240300Z 10005KT CAVOK 19/14 Q1016
TAF OMSJ 232258Z 2400/2506 06008KT CAVOK 
     BECMG 2402/2404 16010KT 
     BECMG 2409/2411 36010KT 
     BECMG 2414/2416 09008KT
       
OMSJ 240300Z 10005KT CAVOK 19/14 Q1016
TAF OMSJ 232258Z 2400/2506 06008KT CAVOK 
     BECMG 2402/2404 16010KT 
     BECMG 2409/2411 36010KT 
     BECMG 2414/2416 09008KT
       
OMAA 240300Z 06002KT 9000 NSC 20/14 Q1015 WS ALL RWY NOSIG
TAF OMAA 232300Z 2400/2506 09010KT 8000 NSC 
     PROB30 
     TEMPO 2402/2406 17018KT 4000 DU 
     BECMG 2411/2413 36012KT 
     PROB30 
     TEMPO 2422/2506 VRB02KT BKN014
       
OMAD 240300Z VRB02KT 8000 NSC 20/16 Q1015 WS ALL RWY NOSIG
TAF OMAD 232300Z 2400/2506 10010KT 8000 NSC 
     PROB30 
     TEMPO 2402/2406 17017KT 4000 DU 
     BECMG 2411/2413 36010KT 
     PROB30 
     TEMPO 2422/2506 VRB02KT BKN014
       
OMAL 240300Z 14016KT CAVOK 23/14 Q1017 NOSIG
TAF OMAL 232300Z 2400/2506 07008KT 8000 NSC 
     BECMG 2400/2402 17010KT 
     PROB40 
     TEMPO 2402/2406 17015G25KT 4000 BLDU 
     BECMG 2413/2415 34008KT 
     BECMG 2422/2424 11008KT
       
OMDB 240300Z 07005KT CAVOK 22/12 Q1016 NOSIG
TAF OMDB 232258Z 2400/2506 08008KT CAVOK 
     BECMG 2403/2405 16010KT 
     BECMG 2408/2410 01010KT 
     BECMG 2415/2417 08008KT
       
OMDW 240300Z 10006KT 7000 NSC 18/14 Q1016 NOSIG
TAF OMDW 232258Z 2400/2506 05008KT CAVOK 
     BECMG 2401/2403 16013KT 
     BECMG 2411/2413 01015KT 
     BECMG 2415/2417 08007KT
       
OMFJ 240300Z 28003KT 6000 FEW040 21/13 Q1017 RMK A3004
TAF OMFJ 232300Z 2400/2506 29008KT 7000 FEW040 
     TEMPO 2400/2404 VRB03KT 5000 HZ 
     BECMG 2406/2408 07008KT 
     BECMG 2416/2418 30008KT
       
OMRK 240300Z 22008KT 9999 FEW040 20/11 Q1016 A3002
TAF OMRK 232258Z 2400/2506 09004KT 9999 FEW040 
     BECMG 2408/2410 36010KT 
     BECMG 2414/2416 09007KT
       
OMSJ 240300Z 10005KT CAVOK 19/14 Q1016
TAF OMSJ 232258Z 2400/2506 06008KT CAVOK 
     BECMG 2402/2404 16010KT 
     BECMG 2409/2411 36010KT 
     BECMG 2414/2416 09008KT